NOAA 16 DEB, 42388

Orbit data source: Space-Track

NOAA 16 DEB, 42388 is space debris in SSO originally from a launch on Thu, 21 Sep 2000 UTC launched from the Air Force Western Test Range (AFWTR). Debris objects in space refer to the collection of defunct objects orbiting the Earth. Examples of debris include non-operational satellites, rocket bodies, and fragments generated from explosions, collisions, or faulty payload assembly.

Loading next visibility...
Identifier
42388, 2000-055SG
Orbit
SSO
Country
Flag of USUS
Related business
Manufacturer
Unknown
Mission
Spacecraft
Bus & Motor
Unknown
Mass
Unknown
Launch date (UTC)
2000-09-21 (25 years ago)
Launch vehicle
Unknown
Launch site
Air Force Western Test Range (AFWTR)
Object type
Payload
Rocket body
Debris
Shape & HBR
Unknown shape, 0.1 m
Radar Cross Section
Small (<0.1 m²)

Expand to show TLE details & history
Last TLE update: 1 day ago

TLE from 1 day ago
0 NOAA 16 DEB
1 42388U 00055SG  25300.93919276  .00005264  00000-0  20915-2 0  9997
2 42388  98.6116 338.2077 0015042 252.1726 107.7815 14.29073814500985
Epoch: 2025-10-27T22:32Z
TLE epoch observation values (Epoch: 2025-10-27T22:32:26.254Z)
Latitude
-0.00003°
Longitude
-36.43553°
Altitude
801.069 km
Speed
7.451 km/s
True Right ascension
22h 32m 49s
True Declination
0° 00' 00"
Sunlit
Object was in full shadow at epoch
Visualization orbit readout
Latitude
Unknown
Longitude
Unknown
Altitude
Unknown
Speed
Unknown
Apparent Right ascension
Unknown
Apparent Declination
Unknown
Sunlit
N/A
Visualization observer readout
Local Sidereal Time
05:13:06
Azimuth
Unknown
Elevation
Unknown
Doppler factor
Unknown
Orbital elements
Apogee altitude
802.755 km
Perigee altitude
781.185 km
Semi-major axis
7,170.107 km
Eccentricity
0.0015
Inclination
98.6116°
RAAN
338.2077°
Arg. of periapsis
252.1726°
True anomaly
107.94554°
Mean anomaly
107.7815°
Eccentric anomaly
107.86353°
Mean motion
3.57482 °/min
Orbital period
100.7 mins
BSTAR
0.0020915
Loading maneuver chart data...
Computing Atmospheric mass density...
Loading historical data...
Loading historical data...
Loading historical data...
Loading historical data...
Loading historical data...
Loading historical data...
Loading historical data...

Documentation

Showing up to 5 results
|